La Junta, CO

11:01 AM MDT on July 24, 2017 (GMT -0600)
La Junta Municipal

Weather History for KLHX - April, 2013

Change the Weather History Date:

Sunday, April 21, 2013

  Actual Average Record
Temperature  
Mean Temperature 53 °F 54 °F  
Max Temperature 69 °F 70 °F 95 °F (1989)
Min Temperature 36 °F 39 °F 28 °F (1966)
Degree Days  
Heating Degree Days 12 11  
Month to date heating degree days 388 291  
Since 1 July heating degree days 4836 5039  
Cooling Degree Days 0 0  
Month to date cooling degree days 0 0  
Year to date cooling degree days 0 1  
Growing Degree Days 2 (Base 50)    
Moisture  
Dew Point 30 °F    
Average Humidity 52    
Maximum Humidity 85    
Minimum Humidity 19    
Precipitation  
Precipitation 0.00 in 0.05 in 0.43 in (1952)
Month to date precipitation 0.10  
Year to date precipitation 0.45  
Sea Level Pressure  
Sea Level Pressure 29.92 in    
Wind  
Wind Speed 7 mph (SSW)    
Max Wind Speed 17 mph    
Max Gust Speed 20 mph    
Visibility 10 miles    
Events      
T = Trace of Precipitation, MM = Missing Value Source: NWS Daily Summary

Daily Weather History Graph

Daily Weather History Graph

Search for Another Location

Airport or City:

Trip Planner

Search our weather history database for the weather conditions in past years. The results will help you decide how hot, cold, wet, or windy it might be!

Date:

Astronomy

Apr. 21, 2013 Rise Set
Actual Time 6:09 AM MDT 7:35 PM MDT
Civil Twilight 5:42 AM MDT 8:03 PM MDT
Nautical Twilight 5:09 AM MDT 8:36 PM MDT
Astronomical Twilight 4:34 AM MDT 9:11 PM MDT
Moon 3:27 PM MDT (4/21) 3:29 AM MDT (4/21)
Length of Visible Light 14h 21m
Length of Day
13h 26m
Waxing Gibbous, 80% of the Moon is Illuminated
Apr 21
Waxing Gibbous
Apr 25
Full
May 2
Last Quarter
May 9
New
May 17
First Quarter

Hourly Weather History & Observations

Time (MDT) Temp. Windchill Dew Point Humidity Pressure Visibility Wind Dir Wind Speed Gust Speed Precip Events Conditions
12:53 AM 45.0 °F 39.7 °F 36.0 °F 71% 29.92 in 10.0 mi WSW 10.4 mph - N/A   Clear
1:53 AM 44.1 °F 37.7 °F 36.0 °F 73% 29.91 in 10.0 mi WSW 12.7 mph - N/A   Clear
2:53 AM 42.1 °F 36.1 °F 35.1 °F 76% 29.91 in 10.0 mi SW 10.4 mph - N/A   Clear
3:53 AM 39.9 °F 34.5 °F 34.0 °F 79% 29.93 in 10.0 mi WSW 8.1 mph - N/A   Clear
4:53 AM 37.9 °F 32.1 °F 33.1 °F 83% 29.94 in 10.0 mi West 8.1 mph - N/A   Clear
5:53 AM 37.0 °F 29.8 °F 32.0 °F 82% 29.95 in 10.0 mi West 10.4 mph - N/A   Clear
6:53 AM 37.0 °F 34.5 °F 33.1 °F 86% 29.99 in 10.0 mi WSW 3.5 mph - N/A   Clear
7:53 AM 44.1 °F 39.0 °F 35.1 °F 71% 30.00 in 10.0 mi West 9.2 mph - N/A   Clear
8:53 AM 48.9 °F - 36.0 °F 61% 30.01 in 10.0 mi WSW 10.4 mph - N/A   Clear
9:53 AM 53.1 °F - 36.0 °F 52% 30.00 in 10.0 mi Calm Calm - N/A   Clear
10:53 AM 59.0 °F - 30.9 °F 35% 29.99 in 10.0 mi Calm Calm - N/A   Clear
11:53 AM 63.0 °F - 30.0 °F 29% 29.97 in 10.0 mi NNE 3.5 mph - N/A   Clear
12:53 PM 64.9 °F - 27.0 °F 24% 29.94 in 10.0 mi East 8.1 mph - N/A   Clear
1:53 PM 66.9 °F - 27.0 °F 22% 29.91 in 10.0 mi ENE 5.8 mph - N/A   Clear
2:53 PM 66.9 °F - 26.1 °F 21% 29.90 in 10.0 mi NNE 3.5 mph - N/A   Scattered Clouds
3:53 PM 66.9 °F - 24.1 °F 20% 29.88 in 10.0 mi SSE 4.6 mph - N/A   Clear
4:53 PM 66.9 °F - 23.0 °F 19% 29.86 in 10.0 mi Variable 3.5 mph - N/A   Clear
5:53 PM 66.0 °F - 23.0 °F 20% 29.86 in 10.0 mi SSE 3.5 mph - N/A   Clear
6:53 PM 66.0 °F - 23.0 °F 20% 29.86 in 10.0 mi ESE 5.8 mph - N/A   Clear
7:53 PM 60.1 °F - 28.9 °F 31% 29.86 in 10.0 mi ENE 8.1 mph - N/A   Clear
8:53 PM 57.0 °F - 30.0 °F 36% 29.87 in 10.0 mi East 9.2 mph - N/A   Scattered Clouds
9:53 PM 52.0 °F - 30.9 °F 45% 29.88 in 10.0 mi NNE 8.1 mph - N/A   Clear
10:53 PM 52.0 °F - 30.0 °F 43% 29.86 in 10.0 mi North 10.4 mph - N/A   Partly Cloudy
11:53 PM 52.0 °F - 30.0 °F 43% 29.87 in 10.0 mi NE 8.1 mph - N/A   Partly Cloudy